• In Deutschland
  • Länderverzeichnis
  • Für 7 Tage
  • Wassertemperatur
  • Satellitenkarten
  • Wetterkarte
  • Widgets
  • user-avatar
    Anmelden

    Stündliche Wetter Berchtesgaden

    Heute, 26 April, Donnerstag

    Zeit Temperatur Niederschläge Wind Luftdruck Luftfeuchtigkeit
    00:00 +14°C° 0,3 mm 1 m/S 705 mmHg 95%
    01:00 +14°C° 0,3 mm 1 m/S 705 mmHg 96%
    02:00 +14°C° 1,4 mm 1 m/S 705 mmHg 96%
    03:00 +13°C° 1,4 mm 1 m/S 705 mmHg 97%
    04:00 +13°C° 1,4 mm 1 m/S 705 mmHg 97%
    05:00 +13°C° 1,7 mm 2 m/S 705 mmHg 97%
    06:00 +12°C° 1,7 mm 2 m/S 705 mmHg 97%
    07:00 +12°C° 1,7 mm 2 m/S 705 mmHg 97%
    08:00 +10°C° 1,4 mm 2 m/S 705 mmHg 97%
    09:00 +10°C° 1,4 mm 2 m/S 705 mmHg 96%
    10:00 +10°C° 1,4 mm 2 m/S 706 mmHg 96%
    11:00 +9°C° 0,6 mm 2 m/S 706 mmHg 95%
    12:00 +9°C° 0,6 mm 2 m/S 706 mmHg 93%
    13:00 +9°C° 0,6 mm 2 m/S 706 mmHg 92%
    14:00 +10°C° 0,3 mm 2 m/S 706 mmHg 89%
    15:00 +10°C° 0,3 mm 2 m/S 706 mmHg 86%
    16:00 +12°C° 0,3 mm 2 m/S 706 mmHg 83%
    17:00 +10°C° 0,1 mm 2 m/S 706 mmHg 85%
    18:00 +10°C° 0,1 mm 1 m/S 706 mmHg 88%
    19:00 +10°C° 0,1 mm 1 m/S 707 mmHg 91%
    20:00 +9°C° 0 mm 1 m/S 707 mmHg 92%
    21:00 +9°C° 0 mm 1 m/S 707 mmHg 93%
    22:00 +8°C° 0 mm 1 m/S 708 mmHg 94%
    23:00 +8°C° 0 mm 1 m/S 708 mmHg 94%

    Morgen, 27 April, Freitag

    Zeit Temperatur Niederschläge Wind Luftdruck Luftfeuchtigkeit
    00:00 +7°C° 0 mm 1 m/S 708 mmHg 95%
    01:00 +7°C° 0 mm 1 m/S 707 mmHg 95%
    02:00 +7°C° 0 mm 1 m/S 707 mmHg 95%
    03:00 +7°C° 0 mm 1 m/S 707 mmHg 95%
    04:00 +6°C° 0 mm 1 m/S 706 mmHg 94%
    05:00 +8°C° 0 mm 1 m/S 706 mmHg 92%
    06:00 +9°C° 0 mm 1 m/S 706 mmHg 89%
    07:00 +9°C° 0 mm 2 m/S 706 mmHg 86%
    08:00 +12°C° 0 mm 2 m/S 705 mmHg 79%
    09:00 +15°C° 0 mm 2 m/S 705 mmHg 71%
    10:00 +17°C° 0 mm 3 m/S 705 mmHg 63%
    11:00 +18°C° 0 mm 3 m/S 705 mmHg 61%
    12:00 +20°C° 0 mm 3 m/S 704 mmHg 58%
    13:00 +21°C° 0 mm 3 m/S 704 mmHg 55%
    14:00 +21°C° 0 mm 3 m/S 704 mmHg 56%
    15:00 +21°C° 0 mm 3 m/S 703 mmHg 57%
    16:00 +21°C° 0 mm 3 m/S 703 mmHg 58%
    17:00 +19°C° 0 mm 2 m/S 703 mmHg 66%
    18:00 +17°C° 0 mm 2 m/S 703 mmHg 75%
    19:00 +15°C° 0 mm 2 m/S 703 mmHg 83%
    20:00 +14°C° 0,1 mm 2 m/S 703 mmHg 86%
    21:00 +13°C° 0,1 mm 2 m/S 703 mmHg 89%
    22:00 +12°C° 0,1 mm 2 m/S 704 mmHg 92%
    23:00 +12°C° 0,1 mm 2 m/S 704 mmHg 91%

    übermorgen, 28 April, Samstag

    Zeit Temperatur Niederschläge Wind Luftdruck Luftfeuchtigkeit
    00:00 +12°C° 0,1 mm 2 m/S 704 mmHg 91%
    01:00 +12°C° 0,1 mm 1 m/S 704 mmHg 91%
    02:00 +12°C° 0 mm 1 m/S 704 mmHg 91%
    03:00 +12°C° 0 mm 1 m/S 704 mmHg 91%
    04:00 +12°C° 0 mm 1 m/S 704 mmHg 91%
    05:00 +12°C° 0 mm 1 m/S 704 mmHg 89%
    06:00 +12°C° 0 mm 0 m/S 704 mmHg 87%
    07:00 +13°C° 0 mm 0 m/S 705 mmHg 85%
    08:00 +15°C° 0 mm 1 m/S 705 mmHg 79%
    09:00 +18°C° 0 mm 1 m/S 705 mmHg 74%
    10:00 +18°C° 0 mm 2 m/S 705 mmHg 68%
    11:00 +18°C° 0 mm 2 m/S 705 mmHg 68%
    12:00 +18°C° 0 mm 2 m/S 705 mmHg 67%
    13:00 +19°C° 0 mm 2 m/S 705 mmHg 67%
    14:00 +19°C° 0,1 mm 2 m/S 704 mmHg 67%
    15:00 +19°C° 0,1 mm 2 m/S 704 mmHg 67%
    16:00 +19°C° 0,1 mm 2 m/S 703 mmHg 67%
    17:00 +18°C° 0,3 mm 2 m/S 703 mmHg 75%
    18:00 +16°C° 0,3 mm 1 m/S 703 mmHg 82%
    19:00 +15°C° 0,3 mm 1 m/S 703 mmHg 89%
    20:00 +14°C° 0,1 mm 1 m/S 703 mmHg 91%
    21:00 +13°C° 0,1 mm 1 m/S 703 mmHg 92%
    22:00 +12°C° 0,1 mm 1 m/S 703 mmHg 94%
    23:00 +12°C° 0 mm 1 m/S 703 mmHg 93%

    29 April, Sonntag

    Zeit Temperatur Niederschläge Wind Luftdruck Luftfeuchtigkeit
    00:00 +11°C° 0 mm 1 m/S 703 mmHg 92%
    01:00 +11°C° 0 mm 1 m/S 702 mmHg 91%
    02:00 +10°C° 0 mm 2 m/S 702 mmHg 91%
    03:00 +10°C° 0 mm 2 m/S 702 mmHg 90%
    04:00 +10°C° 0 mm 2 m/S 702 mmHg 90%
    05:00 +12°C° 0 mm 2 m/S 701 mmHg 87%
    06:00 +13°C° 0 mm 2 m/S 701 mmHg 84%
    07:00 +14°C° 0 mm 2 m/S 701 mmHg 80%
    08:00 +17°C° 0 mm 2 m/S 701 mmHg 71%
    09:00 +19°C° 0 mm 2 m/S 701 mmHg 61%
    10:00 +23°C° 0 mm 2 m/S 701 mmHg 52%
    11:00 +24°C° 0 mm 2 m/S 701 mmHg 48%
    12:00 +25°C° 0 mm 3 m/S 701 mmHg 45%
    13:00 +26°C° 0 mm 3 m/S 701 mmHg 42%
    14:00 +26°C° 0 mm 3 m/S 700 mmHg 43%
    15:00 +26°C° 0 mm 3 m/S 700 mmHg 45%
    16:00 +26°C° 0 mm 3 m/S 699 mmHg 46%
    17:00 +22°C° 0 mm 3 m/S 699 mmHg 54%
    18:00 +20°C° 0 mm 3 m/S 698 mmHg 62%
    19:00 +18°C° 0 mm 3 m/S 698 mmHg 71%
    20:00 +17°C° 0 mm 3 m/S 698 mmHg 72%
    21:00 +14°C° 0 mm 3 m/S 698 mmHg 73%
    22:00 +13°C° 0 mm 3 m/S 698 mmHg 75%
    23:00 +13°C° 0 mm 3 m/S 698 mmHg 76%

    30 April, Montag

    Zeit Temperatur Niederschläge Wind Luftdruck Luftfeuchtigkeit
    00:00 +12°C° 0 mm 3 m/S 698 mmHg 78%
    01:00 +12°C° 0 mm 3 m/S 698 mmHg 80%
    02:00 +13°C° 0 mm 2 m/S 698 mmHg 83%
    03:00 +12°C° 0 mm 2 m/S 698 mmHg 86%
    04:00 +12°C° 0 mm 2 m/S 699 mmHg 89%
    05:00 +12°C° 0,2 mm 2 m/S 699 mmHg 88%
    06:00 +11°C° 0,2 mm 3 m/S 699 mmHg 88%
    07:00 +12°C° 0,2 mm 3 m/S 700 mmHg 87%
    08:00 +11°C° 1,5 mm 3 m/S 700 mmHg 89%
    09:00 +10°C° 1,5 mm 3 m/S 701 mmHg 91%
    10:00 +9°C° 1,5 mm 3 m/S 701 mmHg 93%
    11:00 +9°C° 0,9 mm 3 m/S 702 mmHg 90%
    12:00 +9°C° 0,9 mm 2 m/S 702 mmHg 88%
    13:00 +9°C° 0,9 mm 2 m/S 703 mmHg 85%
    14:00 +10°C° 0,1 mm 2 m/S 703 mmHg 79%
    15:00 +13°C° 0,1 mm 1 m/S 703 mmHg 72%
    16:00 +14°C° 0,1 mm 1 m/S 703 mmHg 65%
    17:00 +13°C° 0 mm 1 m/S 703 mmHg 70%
    18:00 +12°C° 0 mm 1 m/S 703 mmHg 75%
    19:00 +10°C° 0 mm 1 m/S 703 mmHg 80%
    20:00 +10°C° 0 mm 1 m/S 704 mmHg 83%
    21:00 +9°C° 0 mm 1 m/S 704 mmHg 85%
    22:00 +8°C° 0 mm 1 m/S 704 mmHg 88%
    23:00 +8°C° 0 mm 1 m/S 705 mmHg 88%

    1 Mai, Dienstag

    Zeit Temperatur Niederschläge Wind Luftdruck Luftfeuchtigkeit
    00:00 +8°C° 0 mm 1 m/S 705 mmHg 88%
    01:00 +8°C° 0 mm 1 m/S 705 mmHg 87%
    02:00 +8°C° 0 mm 1 m/S 705 mmHg 89%
    03:00 +8°C° 0 mm 1 m/S 705 mmHg 90%
    04:00 +6°C° 0 mm 0 m/S 705 mmHg 91%
    05:00 +7°C° 0 mm 0 m/S 705 mmHg 88%
    06:00 +9°C° 0 mm 1 m/S 705 mmHg 84%
    07:00 +10°C° 0 mm 1 m/S 705 mmHg 81%
    08:00 +13°C° 0 mm 1 m/S 705 mmHg 73%
    09:00 +15°C° 0 mm 1 m/S 705 mmHg 65%
    10:00 +18°C° 0 mm 1 m/S 705 mmHg 57%
    11:00 +18°C° 0 mm 2 m/S 705 mmHg 54%
    12:00 +18°C° 0 mm 2 m/S 704 mmHg 51%
    13:00 +19°C° 0 mm 2 m/S 704 mmHg 48%
    14:00 +19°C° 0 mm 2 m/S 704 mmHg 50%
    15:00 +19°C° 0 mm 2 m/S 703 mmHg 52%
    16:00 +18°C° 0 mm 2 m/S 703 mmHg 54%
    17:00 +17°C° 0 mm 2 m/S 703 mmHg 63%
    18:00 +15°C° 0 mm 1 m/S 703 mmHg 71%
    19:00 +14°C° 0 mm 1 m/S 702 mmHg 80%
    20:00 +13°C° 0 mm 1 m/S 702 mmHg 81%
    21:00 +12°C° 0 mm 1 m/S 703 mmHg 82%
    22:00 +11°C° 0 mm 1 m/S 703 mmHg 83%
    23:00 +11°C° 0 mm 1 m/S 703 mmHg 81%
    Mehr zeigen